Regional Weather Roundup
Issued by NWS

Home | Current Version | Previous Version | Graphics & Text | Print | Product List | Glossary On
Versions: 1 2 3 4 5 6 7 8 9 10 11 12 13 14 15 16 17 18 19 20 21 22 23 24 25 26 27
000
ASUS45 KBOU 140410
RWRCO

WEATHER ROUNDUP FOR COLORADO
NATIONAL WEATHER SERVICE DENVER/BOULDER CO
900 PM MST WED DEC 13 2017

NOTE: "FAIR" INDICATES FEW OR NO CLOUDS BELOW 12000 FEET WITH NO
SIGNIFICANT WEATHER AND/OR OBSTRUCTIONS TO VISIBILITY.

COZ001>005-013-030-031-140500-
...NORTHWEST COLORADO...

CITY           SKY/WX    TMP DP  RH WIND       PRES   REMARKS
CRAIG          LGT SNOW  33  25  72 VRB6      30.12R WCI  28
HAYDEN         CLOUDY    32  27  81 NW14      30.12R WCI  22
MEEKER         CLOUDY    37  21  52 NE7       30.09R
RABBIT EARS PA LGT SNOW  21  18  86 MISG      30.09S VSB 1
STEAMBOAT SPGS CLOUDY    32  26  77 CALM      30.11R
WALDEN         CLOUDY    25  21  86 CALM      30.11S
$$

COZ006>008-011-140500-
...WEST CENTRAL VALLEYS...

CITY           SKY/WX    TMP DP  RH WIND       PRES   REMARKS
GRAND JUNCTION CLOUDY    36  13  38 N6        30.05R
MONTROSE       MOCLDY    37  12  35 N3        30.06R
EAGLE          FAIR      29  19  66 S3        30.07F
RIFLE          CLOUDY    34  16  47 NW5       30.04R WCI  30
DELTA          MOCLDY    39  12  33 NE6       30.03S
NUCLA          MOCLDY    39   3  22 E7        30.05R
$$

COZ017>023-064>068-140500-
...SOUTHWEST COLORADO...

CITY           SKY/WX    TMP DP  RH WIND       PRES   REMARKS
DURANGO        CLOUDY    31   6  35 CALM      30.01F
CORTEZ         FAIR      31   7  36 E3        30.03F
PAGOSA SPRINGS FAIR      30   5  34 CALM      30.03S
TELLURIDE      CLOUDY    36   2  24 S6        30.10S
WOLF CREEK PAS CLOUDY    27  -4  26 SW14      30.14F WCI  15
$$

COZ009-010-012-014-032>034-037-058>063-140500-
...CENTRAL COLORADO...

CITY           SKY/WX    TMP DP  RH WIND       PRES   REMARKS
ASPEN          MOCLDY    33  13  43 SW5       30.01F WCI  29
BUENA VISTA    CLOUDY    36   4  26 SE7       30.03R
COPPER MTN     NOT AVBL
BERTHOUD PASS  CLOUDY    14   1  57 NW5       30.10F WCI   6
COTTONWOOD PAS CLOUDY    39   9  28 CALM      30.06R
GUNNISON       FAIR      31  14  49 CALM      30.06R
KREMMLING      CLOUDY    34  27  75 N5        30.08F WCI  30
LEADVILLE      CLOUDY    30  10  43 SW7       30.05S WCI  23
MONARCH PASS   CLOUDY    28   5  37 W15       30.21R WCI  17
SALIDA         CLOUDY    39   6  25 E8G16     30.10R
SUNLIGHT       CLOUDY    28   3  34 W7G21     30.12F WCI  21
WILKERSON PASS CLOUDY    21   3  45 E9G21     30.12S WCI  11
$$

COZ069>075-140500-
...SAN LUIS VALLEY/SANGRE DE CRISTO MOUNTAINS...

CITY           SKY/WX    TMP DP  RH WIND       PRES   REMARKS
ALAMOSA        MOCLDY    29   8  41 E8        29.97F WCI  21
DEL NORTE      CLOUDY    35   5  29 CALM      29.99S
LA VETA PASS   CLOUDY    32   7  34 W7          N/A  WCI  26
SAGUACHE       CLOUDY    34   7  32 W3        30.02R
$$

COZ035-036-038>040-140500-
...NORTHERN COLORADO FRONT RANGE...

CITY           SKY/WX    TMP DP  RH WIND       PRES   REMARKS
DENVER INTL AP CLOUDY    38  13  35 NE6       30.10R
DMNS CITY PARK NOT AVBL
AURORA         CLOUDY    37  13  37 NE5       30.11R
FRONT RANGE AP CLOUDY    39  14  35 N9        30.11R
ERIE MUNI ARPT FAIR      37  15  41 CALM      30.16S
BOULDER MUN AP MOCLDY    41  14  33 SE3       30.11R
CENTENNIAL     CLOUDY    39  14  36 E5        30.11R
BROOMFIELD     MOCLDY    41  12  30 E3        30.12R
FORT COLLINS   CLOUDY    42  15  33 NE9       30.11R
LONGMONT       CLOUDY    40  15  35 CALM      30.12S
$$

COZ041-046-047-076>085-087-088-140500-
...PIKES PEAK/PALMER DIVIDE AND SOUTHERN FOOTHILLS...

CITY           SKY/WX    TMP DP  RH WIND       PRES   REMARKS
COLO. SPRINGS  CLOUDY    38  12  34 NE15      30.09R
A. F. ACADEMY  CLOUDY    35   8  32 N6        30.08R WCI  29
SCHRIEVER AFB  CLOUDY    37  10  32 NE9       30.09R
CHEYENNE MTN   MOCLDY    36   6  28 W5        30.03R
ELLICOTT         N/A    N/A N/A N/A NE12      30.07R
FALCON         CLOUDY    34   9  34 N7        30.09S WCI  28
FORT CARSON    CLOUDY    39   8  28 N8        30.07R
LIMON          CLOUDY    37  14  38 N6        30.08R
MONUMENT HILL  MOCLDY    32  12  43 E5        30.11R WCI  27
CANON CITY     CLOUDY    43  12  28 N6        30.06R
WALSENBURG     CLOUDY    39  12  33 NE3       30.03S
TRINIDAD       CLOUDY    34  12  40 W6        30.01F WCI  29
$$

COZ042>045-048>051-090-091-140500-
...NORTHEAST COLORADO...

CITY           SKY/WX    TMP DP  RH WIND       PRES   REMARKS
GREELEY ARPT   FAIR      40  14  34 N8        30.12R
AKRON          CLOUDY    37  13  37 NE8       30.09R
BURLINGTON     CLOUDY    39  16  39 N9        30.07R
WRAY           CLOUDY    36  18  48 N5        30.09R
YUMA           CLOUDY    36  16  44 N5        30.09R
STERLING       MOCLDY    41  19  42 N12G17    30.09R
HOLYOKE        FAIR      41  19  42 N9        30.09R
FORT MORGAN    CLOUDY    40  11  30 N5        30.10R
$$

COZ086-089-092>099-140500-
...SOUTHEAST COLORADO...

CITY           SKY/WX    TMP DP  RH WIND       PRES   REMARKS
PUEBLO         CLOUDY    41  10  28 NE13      30.05R
LA JUNTA       FAIR      45  13  27 NE8       30.05R
LAMAR          FAIR      45  13  27 NE6       30.02S
SPRINGFIELD      N/A     38  15  39 N5        30.03S
$$




USA.gov is the U.S. government's official web portal to all federal, state and local government web resources and services.